FENGYUN 3F

Last updated on Sat Aug 15 2026 00:02:41 GMT+0000 (Coordinated Universal Time)

1 57490U 23111A 26226.60115586 .00000005 00000+0 22709-4 0 9991 2 57490 98.6799 295.5102 0000773 92.5908 267.5357 14.19947288157156
UTC large
Height (km)
Speed (km/s)
/
Latitude / Longitude
Inclination (degrees)
Orbital Period (minutes)
Azimuth
Elevation
Range (km)
Doppler Factor

Next 0 passes for location: London (51.5072 / 0.1276)

No passes found over London.
FENGYUN 3F